Weather History for Spirit of St Louis, MO

Change the Weather History Date:

Monday, March 11, 2013

  Actual Average Record
Temperature  
Mean Temperature 40 °F -  
Max Temperature 43 °F 50 °F 82 °F (2014)
Min Temperature 33 °F 29 °F 14 °F (1998)
Degree Days  
Heating Degree Days 26    
Moisture  
Dew Point 30 °F    
Average Humidity 78    
Maximum Humidity 89    
Minimum Humidity 61    
Precipitation  
Precipitation 0.00 in - - ()
Sea Level Pressure  
Sea Level Pressure 29.83 in    
Wind  
Wind Speed 13 mph (West)    
Max Wind Speed 18 mph    
Max Gust Speed 26 mph    
Visibility 10 miles    
Events Rain    
Averages and records for this station are not official NWS values.
T = Trace of Precipitation, MM = Missing Value Source: NWS Daily Summary

Daily Weather History Graph

Daily Weather History Graph

Search for Another Location

Airport:

Trip Planner

Search our weather history database for the weather conditions in past years. The results will help you decide how hot, cold, wet, or windy it might be!

Date:

Astronomy

Mar. 11, 2013 Rise Set
Actual Time 7:19 AM CDT 7:06 PM CDT
Civil Twilight 6:53 AM CDT 7:32 PM CDT
Nautical Twilight 6:22 AM CDT 8:03 PM CDT
Astronomical Twilight 5:51 AM CDT 8:34 PM CDT
Moon 6:53 AM CDT (3/11) 7:17 PM CDT (3/11)
Length of Visible Light 12h 39m
Length of Day
11h 46m
Waning Crescent, 0% of the Moon is Illuminated
Mar 11
Waning Crescent
Mar 11
New
Mar 19
First Quarter
Mar 27
Full
Apr 2
Last Quarter

Hourly Weather History & Observations

Time (CDT) Temp. Windchill Dew Point Humidity Pressure Visibility Wind Dir Wind Speed Gust Speed Precip Events Conditions
12:01 AM 46.4 °F 42.4 °F 41.0 °F 81% 29.73 in 10.0 mi West 8.1 mph - N/A   Overcast
12:13 AM 44.6 °F 38.1 °F 39.2 °F 81% 29.74 in 10.0 mi West 13.8 mph - N/A   Overcast
12:54 AM 44.1 °F 38.1 °F 39.0 °F 82% 29.75 in 10.0 mi West 11.5 mph - N/A   Overcast
1:15 AM 42.8 °F 35.4 °F 37.4 °F 81% 29.75 in 10.0 mi WSW 15.0 mph 21.9 mph N/A   Overcast
1:54 AM 41.0 °F 34.3 °F 37.0 °F 86% 29.76 in 10.0 mi WSW 11.5 mph 21.9 mph N/A   Overcast
2:54 AM 39.0 °F 31.0 °F 34.0 °F 82% 29.75 in 10.0 mi West 13.8 mph 19.6 mph N/A   Overcast
3:54 AM 36.0 °F 26.0 °F 33.1 °F 89% 29.76 in 10.0 mi West 17.3 mph 23.0 mph N/A   Overcast
4:54 AM 36.0 °F 27.5 °F 30.9 °F 82% 29.75 in 10.0 mi West 12.7 mph - N/A   Overcast
5:31 AM 35.6 °F 26.6 °F 30.2 °F 81% 29.76 in 10.0 mi WSW 13.8 mph 21.9 mph N/A   Overcast
5:54 AM 35.1 °F 26.4 °F 30.0 °F 82% 29.78 in 10.0 mi WSW 12.7 mph 19.6 mph N/A   Overcast
6:52 AM 33.8 °F 24.3 °F 30.2 °F 87% 29.77 in 10.0 mi West 13.8 mph 21.9 mph N/A   Overcast
6:54 AM 34.0 °F 23.8 °F 28.9 °F 82% 29.78 in 10.0 mi WSW 16.1 mph - N/A   Overcast
7:52 AM 33.8 °F 23.2 °F 28.4 °F 81% 29.77 in 10.0 mi WSW 17.3 mph 23.0 mph N/A   Overcast
7:54 AM 34.0 °F 23.0 °F 28.9 °F 82% 29.79 in 10.0 mi WSW 18.4 mph 23.0 mph N/A   Overcast
8:54 AM 33.1 °F 23.0 °F 28.9 °F 85% 29.81 in 4.0 mi West 15.0 mph - 0.00 in Rain Light Rain
9:34 AM 33.8 °F 23.5 °F 28.4 °F 81% 29.80 in 7.0 mi West 16.1 mph 25.3 mph 0.00 in   Overcast
9:41 AM 33.8 °F 23.5 °F 28.4 °F 81% 29.80 in 6.0 mi West 16.1 mph 26.5 mph 0.00 in Rain Light Rain
9:54 AM 33.1 °F 22.2 °F 28.9 °F 85% 29.81 in 7.0 mi West 17.3 mph 25.3 mph 0.00 in   Overcast
10:54 AM 33.1 °F 21.9 °F 28.9 °F 85% 29.83 in 8.0 mi West 18.4 mph 26.5 mph N/A   Overcast
11:54 AM 33.1 °F 23.0 °F 27.0 °F 78% 29.83 in 10.0 mi West 15.0 mph 24.2 mph N/A   Overcast
12:13 PM 33.8 °F 22.8 °F 26.6 °F 75% 29.82 in 10.0 mi WSW 18.4 mph 24.2 mph N/A   Overcast
12:54 PM 33.1 °F 23.4 °F 28.0 °F 82% 29.84 in 10.0 mi West 13.8 mph 23.0 mph N/A   Overcast
1:54 PM 34.0 °F 23.0 °F 27.0 °F 75% 29.84 in 10.0 mi West 18.4 mph 24.2 mph N/A   Overcast
2:54 PM 35.1 °F 26.4 °F 28.0 °F 76% 29.86 in 10.0 mi WSW 12.7 mph - N/A   Overcast
3:54 PM 35.1 °F 25.2 °F 27.0 °F 72% 29.86 in 10.0 mi West 16.1 mph 21.9 mph N/A   Overcast
4:54 PM 36.0 °F 27.5 °F 27.0 °F 70% 29.88 in 10.0 mi West 12.7 mph - N/A   Overcast
5:54 PM 35.6 °F 28.6 °F 26.6 °F 70% 29.89 in 10.0 mi West 9.2 mph - N/A   Overcast
6:54 PM 36.0 °F 31.1 °F 27.0 °F 70% 29.93 in 10.0 mi West 5.8 mph - N/A   Overcast
7:54 PM 36.0 °F 30.3 °F 27.0 °F 70% 29.95 in 10.0 mi West 6.9 mph - N/A   Overcast
8:54 PM 36.0 °F 31.1 °F 26.1 °F 67% 29.98 in 10.0 mi West 5.8 mph - N/A   Overcast
9:54 PM 35.1 °F 27.9 °F 24.1 °F 64% 29.98 in 10.0 mi West 9.2 mph - N/A   Overcast
10:54 PM 35.1 °F 29.3 °F 23.0 °F 61% 30.01 in 10.0 mi West 6.9 mph - N/A   Overcast
11:54 PM 34.0 °F 26.6 °F 23.0 °F 64% 30.03 in 10.0 mi West 9.2 mph - N/A   Clear